User: anonymous   Login
Location: Bagnara
(41.0500°N, 14.7833°E)
Time: 21:04:28
(UTC+00:00)
Language:

YAOGAN-30 M - Orbit

View from above orbital plane
View from above orbital plane
View from above satellite
View from above satellite

Ground track
Ground track

The orbit data is extracted from the following two-line orbital elements,

1 43171U 18011C   22024.49279386  .00000801  00000-0  83977-4 0  9992
2 43171  34.9967 102.8500 0001813 135.9729 224.1108 14.90129673217865
Epoch (UTC): 24 January 2022 11:49:37
Eccentricity: 0.0001813
inclination: 34.9967°
perigee height: 596 km
apogee height: 599 km
right ascension of ascending node: 102.8500°
argument of perigee: 135.9729°
revolutions per day: 14.90129673
mean anomaly at epoch: 224.1108°
orbit number at epoch: 21786

The dashed part of the orbit path shows where the satellite is in the earth's shadow,  

DLR